Regional Weather Roundup
Issued by NWS

Home | Current Version | Previous Version | Text Only | Print | Product List | Glossary Off
Versions: 1 2 3 4 5 6 7 8 9 10 11 12 13 14 15 16 17 18 19 20 21 22 23 24 25 26 27 28 29 30 31 32 33 34 35 36 37 38 39 40 41 42 43 44 45 46 47 48 49 50

000
ASUS43 KDTX 260601
RWRMI
MICHIGAN HOURLY REGIONAL WEATHER ROUNDUP
NATIONAL WEATHER SERVICE DETROIT/PONTIAC MI
200 AM EDT TUE MAY 26 2015

NOTE: "FAIR" INDICATES FEW OR NO CLOUDS BELOW 12,000 FEET WITH NO
SIGNIFICANT WEATHER AND/OR OBSTRUCTION TO VISIBILITY.

MIZ047>049-052>055-059>063-066>070-074>076-081>083-260700-
SOUTHEAST LOWER MICHIGAN

CITY           SKY/WX    TMP DP  RH WIND       PRES   REMARKS
ADRIAN         MOCLDY    68  62  81 SW9       30.06S
6HR MIN TEMP:  68; 6HR MAX TEMP:  78;

ALMA           CLEAR     65  60  83 S7        29.97F
ANN ARBOR      MOCLDY    68  62  81 SW8       30.04S
BAD AXE        MOCLDY    65  59  79 SW6       29.98R
CARO           MOCLDY    61  58  90 S5        29.97S
DETROIT CITY   CLOUDY    71  62  73 SW12      30.03S
6HR MIN TEMP:  71; 6HR MAX TEMP:  79;

DETROIT        CLOUDY    71  63  75 S12       30.04F
6HR MIN TEMP:  71; 6HR MAX TEMP:  80;

FLINT          PTCLDY    70  62  76 SW10      30.00S
6HR MIN TEMP:  66; 6HR MAX TEMP:  74;

GROSSE ILE     CLOUDY    70  63  78 S8        30.03S
HILLSDALE      CLEAR     67  64  91 S5        30.05S
6HR MIN TEMP:  67; 6HR MAX TEMP:  77;

HOWELL         PTCLDY    67  62  83 S3        30.02S
6HR MIN TEMP:  67; 6HR MAX TEMP:  74;


CITY           SKY/WX    TMP DP  RH WIND       PRES   REMARKS
JACKSON        CLEAR     68  62  81 SW9       30.02F
6HR MIN TEMP:  68; 6HR MAX TEMP:  77;

LAMBERTVILLE   CLOUDY    72  63  73 SW8       30.05S
LANSING        CLEAR     67  61  81 S10       30.00F
6HR MIN TEMP:  65; 6HR MAX TEMP:  74;

LAPEER         NOT AVBL
MASON          CLEAR     66  60  81 CALM      30.01F
MONROE         CLOUDY    72  63  73 SW7       30.03S
MT. CLEMENS    CLOUDY    73  63  71 SW12      30.00S
6HR MIN TEMP:  71; 6HR MAX TEMP:  80;

PONTIAC        CLOUDY    70  62  76 SW8       30.02R
6HR MIN TEMP:  70; 6HR MAX TEMP:  78;

PORT HOPE        N/A    N/A N/A N/A SW7       29.95R
PORT HURON     CLOUDY    64  61  88 S6        30.02S
TRI CITIES     CLEAR     68  59  73 SW9       29.97S
6HR MIN TEMP:  68; 6HR MAX TEMP:  76;

MIDLAND        FAIR      65  58  79 CALM      29.96R
TROY           CLOUDY    73  62  67 SW12G17   30.04S
SAGINAW HB     PTCLDY    64  59  82 SW9       29.97S
$$
MIZ043>046-050>051-056>058-064>065-071>073-077>080-260700-
SOUTHWEST LOWER MICHIGAN

CITY           SKY/WX    TMP DP  RH WIND       PRES   REMARKS
BATTLE CREEK   CLEAR     68  62  81 S10       30.02S
6HR MIN TEMP:  66; 6HR MAX TEMP:  75;

BENTON HARBOR  PTCLDY    69  62  78 S9        29.97F
6HR MIN TEMP:  63; 6HR MAX TEMP:  74;

BIG RAPIDS     PTCLDY    65  57  77 SW5       29.94F
6HR MIN TEMP:  65; 6HR MAX TEMP:  72;

COLDWATER      CLEAR     68  62  80 S5        30.02F
6HR MIN TEMP:  68; 6HR MAX TEMP:  76;

FREMONT        FAIR      62  57  84 S5        29.95S
6HR MIN TEMP:  62; 6HR MAX TEMP:  71;

HOLLAND        PTCLDY    65  59  81 S8        29.97F
6HR MIN TEMP:  63; 6HR MAX TEMP:  74;

GRAND RAPIDS   CLEAR     67  60  78 S9        29.97F
6HR MIN TEMP:  64; 6HR MAX TEMP:  74;

IONIA          FAIR      67  60  76 SW8       29.98F
KALAMAZOO      CLEAR     69  62  78 S8        30.01S
6HR MIN TEMP:  66; 6HR MAX TEMP:  75;

LUDINGTON      PTCLDY    71  61  70 SW13G21   29.91F
6HR MIN TEMP:  66; 6HR MAX TEMP:  71;

MARSHALL       CLEAR     67  62  82 S6        30.02S
MOUNT PLEASANT PTCLDY    66  59  77 SW5       29.96S
6HR MIN TEMP:  66; 6HR MAX TEMP:  73;

MUSKEGON       PTCLDY    65  55  70 S8        29.95F
6HR MIN TEMP:  63; 6HR MAX TEMP:  68;

SOUTH HAVEN    PTCLDY    69  62  76 S8        29.97F
$$
MIZ016>042-260700-
NORTHERN LOWER MICHIGAN

CITY           SKY/WX    TMP DP  RH WIND       PRES   REMARKS
ALPENA         CLEAR     67  60  78 SW9       29.90R
6HR MIN TEMP:  63; 6HR MAX TEMP:  75;

BEAVER ISLAND  CLOUDY    58  55  88 SW16G23   29.84S
6HR MIN TEMP:  57; 6HR MAX TEMP:  64;

BELLAIRE       MOCLDY    64  61  88 CALM      29.89S
6HR MIN TEMP:  64; 6HR MAX TEMP:  72;

CADILLAC       PTCLDY    63  59  86 SW9       29.94F
CHARLEVOIX     LGT RAIN  65  62  91 SW7       29.89S
FRANKFORT      PTCLDY    62  53  73 SW8       29.89F
GAYLORD        RAIN      64  63  96 SW12      29.91R
6HR MIN TEMP:  64; 6HR MAX TEMP:  69; 6HR PCP:  0.03;

HARBOR SPRINGS CLOUDY    63  59  88 SW6       29.87R
HOUGHTON LAKE  CLEAR     64  59  83 SW6       29.95R
6HR MIN TEMP:  64; 6HR MAX TEMP:  71;

MANISTEE       PTCLDY    66  57  72 S7        29.91S
OSCODA         PTCLDY    65  61  87 SW9       29.93R
PELLSTON       CLOUDY    65  61  87 SW8       29.86R
6HR MIN TEMP:  65; 6HR MAX TEMP:  69; 6HR PCP:  0.14;

ROGERS CITY    MOCLDY    67  62  83 SW8       29.88R
TRAVERSE CITY  MOCLDY    69  60  73 VRB6      29.88S
6HR MIN TEMP:  68; 6HR MAX TEMP:  74;

$$
MIZ007>008-015-260700-
EASTERN UPPER MICHIGAN

CITY           SKY/WX    TMP DP  RH WIND       PRES   REMARKS
KINROSS        MOCLDY    61  59  94 SW6       29.84S
6HR MIN TEMP:  57; 6HR MAX TEMP:  61;

MACKINAC ISLAN CLOUDY    55  55 100 W6        29.85R
6HR MIN TEMP:  55; 6HR MAX TEMP:  59; 6HR PCP:  0.07;

NEWBERRY       CLOUDY    53  52  97 SW9       29.81F
6HR MIN TEMP:  52; 6HR MAX TEMP:  58;

S. S. MARIE    MOCLDY    59  56  89 SW3       29.82R
6HR MIN TEMP:  59; 6HR MAX TEMP:  62; 6HR PCP: TRACE;

$$
MIZ004>006-011>014-085-260700-
CENTRAL UPPER MICHIGAN

CITY           SKY/WX    TMP DP  RH WIND       PRES   REMARKS
MANISTIQUE     CLOUDY    47  46  95 S6        29.82R
6HR MIN TEMP:  46; 6HR MAX TEMP:  49;

ESCANABA       PTCLDY    55  52  88 CALM      29.80S
6HR MIN TEMP:  55; 6HR MAX TEMP:  73;

MENOMINEE      CLOUDY    63  57  82 SW8       29.83R
6HR MIN TEMP:  63; 6HR MAX TEMP:  75; 6HR PCP:  0.17;

SAWYER-GWINN   PTCLDY    59  57  93 S8        29.79S
6HR MIN TEMP:  59; 6HR MAX TEMP:  69;

$$
MIZ001>003-009>011-084-260700-
WESTERN UPPER MICHIGAN

CITY           SKY/WX    TMP DP  RH WIND       PRES   REMARKS
IRON MOUNTAIN  CLEAR     60  58  92 S6        29.80S
6HR MIN TEMP:  60; 6HR MAX TEMP:  70; 6HR PCP: TRACE;

HOUGHTON       CLOUDY    57  55  93 W13       29.75R
6HR MIN TEMP:  54; 6HR MAX TEMP:  58;

COPPER HARBOR    N/A     46  44  93 CALM      29.73S
6HR MIN TEMP:  42; 6HR MAX TEMP:  46;

IRONWOOD       CLOUDY    54  54 100 CALM      29.76R VSB 1/4
6HR MIN TEMP:  54; 6HR MAX TEMP:  61;

$$

ABBREVIATIONS USED IN REMARKS
   TC - TEMPERATURE IN CELSIUS
  WCI - WIND CHILL INDEX
   HX - HEAT INDEX
  VSB - VISIBILITY



USA.gov is the U.S. government's official web portal to all federal, state and local government web resources and services.